2023/09/19 00:00:00, 2.7,21.2
2023/09/19 00:10:00, 2.7,21.0
2023/09/19 00:20:00, 2.8,21.2
2023/09/19 00:30:00, 3.0,21.3
2023/09/19 00:40:00, 4.8,21.4
2023/09/19 00:50:00,11.3,21.3
2023/09/19 01:00:00,11.7,21.2
2023/09/19 01:10:00,12.0,21.2
2023/09/19 01:20:00,12.4,21.2
2023/09/19 01:30:00,12.6,21.2
2023/09/19 01:40:00,12.1,21.0
2023/09/19 01:50:00, 3.1,21.3
2023/09/19 02:00:00, 2.9,21.1
2023/09/19 02:10:00, 2.9,21.2
2023/09/19 02:20:00, 2.9,21.4
2023/09/19 02:30:00, 3.0,21.4
2023/09/19 02:40:00,12.3,21.4
2023/09/19 02:50:00,13.1,21.5
2023/09/19 03:00:00,12.5,21.3
2023/09/19 03:10:00,11.9,21.5
2023/09/19 03:20:00,11.5,21.4
2023/09/19 03:30:00,11.3,21.2
2023/09/19 03:40:00,11.3,21.2
2023/09/19 03:50:00,11.6,21.0
2023/09/19 04:00:00,12.2,20.9
2023/09/19 04:10:00,13.1,20.8
2023/09/19 04:20:00,11.2,21.1
2023/09/19 04:30:00, 2.7,21.2
2023/09/19 04:40:00, 2.6,21.0
2023/09/19 04:50:00, 2.6,20.9
2023/09/19 05:00:00, 2.6,21.4
2023/09/19 05:10:00, 2.7,20.9
2023/09/19 05:20:00, 9.0,21.1
2023/09/19 05:30:00,12.2,21.0
2023/09/19 05:40:00,11.7,20.8
2023/09/19 05:50:00,11.2,20.9
2023/09/19 06:00:00,11.0,20.8
2023/09/19 06:10:00,10.9,20.8
2023/09/19 06:20:00,10.7,20.8
2023/09/19 06:30:00,10.8,20.8
2023/09/19 06:40:00,11.1,21.3
2023/09/19 06:50:00,11.3,21.2
2023/09/19 07:00:00,11.5,21.5
2023/09/19 07:10:00,11.8,21.4
2023/09/19 07:20:00,11.8,21.6
2023/09/19 07:30:00,11.3,21.9
2023/09/19 07:40:00,10.8,22.7
2023/09/19 07:50:00, 6.8,23.0
2023/09/19 08:00:00, 2.6,23.1
2023/09/19 08:10:00, 2.5,23.9
2023/09/19 08:20:00, 2.3,24.0
2023/09/19 08:30:00, 5.6,24.2
2023/09/19 08:40:00,15.1,24.6
2023/09/19 08:50:00, 9.5,25.0
2023/09/19 09:00:00, 1.9,25.3
2023/09/19 09:10:00, 1.9,25.3
2023/09/19 09:20:00, 2.1,24.9
2023/09/19 09:30:00, 1.9,26.2
2023/09/19 09:40:00, 2.5,25.9
2023/09/19 09:50:00, 2.1,25.6
2023/09/19 10:00:00, 1.9,26.5
2023/09/19 10:10:00, 1.9,27.9
2023/09/19 10:20:00, 1.4,31.0
2023/09/19 10:30:00, 1.8,30.7
2023/09/19 10:40:00, 2.2,30.4
2023/09/19 10:50:00, 2.1,29.4
2023/09/19 11:00:00, 2.2,29.2
2023/09/19 11:10:00, 2.1,28.0
2023/09/19 11:20:00, 1.8,28.7
2023/09/19 11:30:00, 1.7,30.5
2023/09/19 11:40:00, 1.9,31.8
2023/09/19 11:50:00, 2.2,27.2
2023/09/19 12:00:00, 2.2,26.4
2023/09/19 12:10:00, 1.9,28.1
2023/09/19 12:20:00, 1.9,28.5
2023/09/19 12:30:00, 2.3,27.1
2023/09/19 12:40:00, 2.6,27.0
2023/09/19 12:50:00, 2.6,27.8
2023/09/19 13:00:00, 2.8,27.0
2023/09/19 13:10:00, 2.7,26.5
2023/09/19 13:20:00, 2.3,27.6
2023/09/19 13:30:00, 2.4,29.0
2023/09/19 13:40:00, 2.3,28.8
2023/09/19 13:50:00, 2.4,28.4
2023/09/19 14:00:00, 2.5,26.5
2023/09/19 14:10:00, 1.5,24.2
2023/09/19 14:20:00, 0.9,23.6
2023/09/19 14:30:00, 1.2,23.8
2023/09/19 14:40:00, 1.2,24.0
2023/09/19 14:50:00, 1.2,24.0
2023/09/19 15:00:00, 1.2,24.4
2023/09/19 15:10:00, 1.3,24.3
2023/09/19 15:20:00,11.9,24.4
2023/09/19 15:30:00,10.9,24.0
2023/09/19 15:40:00,10.6,24.4
2023/09/19 15:50:00,10.8,24.0
2023/09/19 16:00:00,10.9,24.0
2023/09/19 16:10:00, 3.0,23.2
2023/09/19 16:20:00, 0.2,23.7
2023/09/19 16:30:00, 0.1,24.1
2023/09/19 16:40:00, 0.2,23.9
2023/09/19 16:50:00, 0.2,24.0
2023/09/19 17:00:00, 0.3,24.3
2023/09/19 17:10:00, 0.3,24.4
2023/09/19 17:20:00, 0.3,24.0
2023/09/19 17:30:00, 0.3,23.6
2023/09/19 17:40:00, 0.3,23.6
2023/09/19 17:50:00, 0.3,23.1
2023/09/19 18:00:00, 0.4,23.2
2023/09/19 18:10:00, 0.4,23.2
2023/09/19 18:20:00, 0.4,23.1
2023/09/19 18:30:00, 0.7,23.0
2023/09/19 18:40:00, 3.5,22.9
2023/09/19 18:50:00, 8.8,22.8
2023/09/19 19:00:00,10.0,22.9
2023/09/19 19:10:00,10.2,23.0
2023/09/19 19:20:00, 9.9,22.9
2023/09/19 19:30:00, 9.7,22.2
2023/09/19 19:40:00, 9.5,22.9
2023/09/19 19:50:00, 9.4,22.9
2023/09/19 20:00:00, 9.2,22.6
2023/09/19 20:10:00, 9.1,23.0
2023/09/19 20:20:00, 9.0,22.7
2023/09/19 20:30:00, 8.9,22.8
2023/09/19 20:40:00, 8.6,22.9
2023/09/19 20:50:00, 3.5,22.8
2023/09/19 21:00:00, 0.4,22.9
2023/09/19 21:10:00, 0.4,22.6
2023/09/19 21:20:00, 0.4,22.6
2023/09/19 21:30:00, 0.9,22.6
2023/09/19 21:40:00, 0.9,22.6
2023/09/19 21:50:00, 0.3,22.5
2023/09/19 22:00:00, 0.3,22.6
2023/09/19 22:10:00, 0.3,22.5
2023/09/19 22:20:00, 0.3,22.4
2023/09/19 22:30:00, 0.2,22.3
2023/09/19 22:40:00, 0.2,22.3
2023/09/19 22:50:00, 0.2,22.0
2023/09/19 23:00:00, 0.5,22.0
2023/09/19 23:10:00, 0.2,21.9
2023/09/19 23:20:00, 0.2,21.6
2023/09/19 23:30:00, 0.2,21.7
2023/09/19 23:40:00, 0.2,21.6
2023/09/19 23:50:00, 0.2,21.5
